When you browse on this site, cookies collect data to enhance your experience and personalize the content and advertising you see.
Visit our Privacy Policy to learn more. By continuing to use the site, you agree to this use of cookies and data.
  • Em Portugal
  • Lista de países
  • Para 7 dias
  • Temperatura da água
  • Mapas de satélite
  • Mapa do tempo
  • Widgets de tempo
  • user-avatar
    Iniciar Sessão

    Previsão horária em Kiustendil

    Hoje, 17 Janeiro, Quinta-feira

    Tempo Temperatura Precipitação Vento Pressão Humidade
    00:00 -9°C° 0 mm 1 m/s 620 mmHg 72%
    01:00 -9°C° 0 mm 1 m/s 620 mmHg 73%
    02:00 -9°C° 0 mm 1 m/s 620 mmHg 73%
    03:00 -9°C° 0 mm 1 m/s 620 mmHg 72%
    04:00 -9°C° 0 mm 1 m/s 620 mmHg 72%
    05:00 -9°C° 0 mm 1 m/s 620 mmHg 71%
    06:00 -9°C° 0 mm 1 m/s 620 mmHg 71%
    07:00 -9°C° 0 mm 1 m/s 620 mmHg 70%
    08:00 -7°C° 0 mm 1 m/s 621 mmHg 76%
    09:00 -4°C° 0 mm 1 m/s 621 mmHg 81%
    10:00 -3°C° 0 mm 1 m/s 622 mmHg 86%
    11:00 -2°C° 0 mm 1 m/s 622 mmHg 88%
    12:00 -2°C° 0 mm 1 m/s 622 mmHg 91%
    13:00 -2°C° 0 mm 1 m/s 622 mmHg 93%
    14:00 -3°C° 0 mm 1 m/s 621 mmHg 88%
    15:00 -4°C° 0 mm 1 m/s 621 mmHg 82%
    16:00 -6°C° 0 mm 1 m/s 620 mmHg 77%
    17:00 -6°C° 0 mm 1 m/s 620 mmHg 75%
    18:00 -7°C° 0 mm 1 m/s 620 mmHg 73%
    19:00 -8°C° 0 mm 1 m/s 619 mmHg 70%
    20:00 -8°C° 0 mm 1 m/s 619 mmHg 71%
    21:00 -8°C° 0 mm 1 m/s 619 mmHg 71%
    22:00 -9°C° 0 mm 1 m/s 619 mmHg 71%
    23:00 -9°C° 0 mm 1 m/s 619 mmHg 72%

    Amanhã, 18 Janeiro, Sexta-feira

    Tempo Temperatura Precipitação Vento Pressão Humidade
    00:00 -9°C° 0 mm 1 m/s 619 mmHg 73%
    01:00 -9°C° 0 mm 1 m/s 619 mmHg 74%
    02:00 -9°C° 0 mm 1 m/s 619 mmHg 75%
    03:00 -9°C° 0 mm 1 m/s 619 mmHg 77%
    04:00 -9°C° 0 mm 1 m/s 619 mmHg 78%
    05:00 -9°C° 0 mm 1 m/s 619 mmHg 78%
    06:00 -9°C° 0 mm 1 m/s 619 mmHg 79%
    07:00 -9°C° 0 mm 1 m/s 619 mmHg 80%
    08:00 -7°C° 0 mm 1 m/s 619 mmHg 81%
    09:00 -6°C° 0 mm 1 m/s 620 mmHg 82%
    10:00 -3°C° 0 mm 1 m/s 621 mmHg 84%
    11:00 -2°C° 0 mm 1 m/s 620 mmHg 86%
    12:00 -2°C° 0 mm 1 m/s 620 mmHg 88%
    13:00 -2°C° 0 mm 1 m/s 620 mmHg 90%
    14:00 -2°C° 0 mm 1 m/s 620 mmHg 87%
    15:00 -3°C° 0 mm 1 m/s 620 mmHg 85%
    16:00 -3°C° 0 mm 1 m/s 620 mmHg 82%
    17:00 -3°C° 0 mm 1 m/s 620 mmHg 82%
    18:00 -4°C° 0 mm 1 m/s 620 mmHg 82%
    19:00 -4°C° 0 mm 1 m/s 620 mmHg 82%
    20:00 -4°C° 0.1 mm 1 m/s 620 mmHg 83%
    21:00 -4°C° 0.1 mm 1 m/s 620 mmHg 84%
    22:00 -4°C° 0.1 mm 1 m/s 620 mmHg 86%
    23:00 -6°C° 0.1 mm 1 m/s 620 mmHg 87%

    Depois de amanhã, 19 Janeiro, Sábado

    Tempo Temperatura Precipitação Vento Pressão Humidade
    00:00 -6°C° 0.1 mm 1 m/s 620 mmHg 87%
    01:00 -6°C° 0.1 mm 1 m/s 620 mmHg 88%
    02:00 -6°C° 0.1 mm 1 m/s 620 mmHg 88%
    03:00 -6°C° 0.1 mm 1 m/s 620 mmHg 88%
    04:00 -6°C° 0.1 mm 0 m/s 620 mmHg 88%
    05:00 -6°C° 0.1 mm 0 m/s 620 mmHg 88%
    06:00 -6°C° 0.1 mm 0 m/s 620 mmHg 88%
    07:00 -6°C° 0.1 mm 0 m/s 620 mmHg 88%
    08:00 -5°C° 0.1 mm 0 m/s 621 mmHg 91%
    09:00 -4°C° 0.1 mm 0 m/s 621 mmHg 93%
    10:00 -3°C° 0.1 mm 0 m/s 622 mmHg 96%
    11:00 -3°C° 0 mm 0 m/s 621 mmHg 96%
    12:00 -2°C° 0 mm 0 m/s 621 mmHg 95%
    13:00 -2°C° 0 mm 0 m/s 621 mmHg 95%
    14:00 -1°C° 0 mm 1 m/s 621 mmHg 94%
    15:00 -2°C° 0 mm 1 m/s 621 mmHg 94%
    16:00 -2°C° 0 mm 1 m/s 620 mmHg 93%
    17:00 -3°C° 0 mm 1 m/s 620 mmHg 93%
    18:00 -4°C° 0 mm 1 m/s 620 mmHg 93%
    19:00 -4°C° 0 mm 1 m/s 620 mmHg 94%
    20:00 -6°C° 0 mm 1 m/s 620 mmHg 93%
    21:00 -6°C° 0 mm 1 m/s 620 mmHg 93%
    22:00 -6°C° 0 mm 1 m/s 620 mmHg 93%
    23:00 -6°C° 0 mm 1 m/s 620 mmHg 93%

    20 Janeiro, Domingo

    Tempo Temperatura Precipitação Vento Pressão Humidade
    00:00 -4°C° 0 mm 1 m/s 621 mmHg 93%
    01:00 -4°C° 0 mm 1 m/s 621 mmHg 93%
    02:00 -4°C° 0.1 mm 1 m/s 620 mmHg 93%
    03:00 -4°C° 0.1 mm 1 m/s 620 mmHg 94%
    04:00 -4°C° 0.1 mm 1 m/s 620 mmHg 94%
    05:00 -4°C° 0.1 mm 1 m/s 620 mmHg 94%
    06:00 -4°C° 0.1 mm 1 m/s 620 mmHg 94%
    07:00 -4°C° 0.1 mm 1 m/s 620 mmHg 94%
    08:00 -3°C° 0.1 mm 1 m/s 620 mmHg 95%
    09:00 -2°C° 0.1 mm 1 m/s 620 mmHg 95%
    10:00 -2°C° 0.1 mm 1 m/s 621 mmHg 96%
    11:00 -1°C° 0.1 mm 1 m/s 620 mmHg 96%
    12:00 -1°C° 0.1 mm 1 m/s 620 mmHg 95%
    13:00 -3°C° 0.1 mm 2 m/s 620 mmHg 95%
    14:00 -1°C° 0.1 mm 1 m/s 620 mmHg 95%
    15:00 -2°C° 0.1 mm 1 m/s 620 mmHg 96%
    16:00 -2°C° 0.1 mm 1 m/s 619 mmHg 96%
    17:00 -2°C° 0.1 mm 1 m/s 619 mmHg 96%
    18:00 -3°C° 0.1 mm 1 m/s 620 mmHg 96%
    19:00 -3°C° 0.1 mm 1 m/s 620 mmHg 95%
    20:00 -3°C° 0.1 mm 1 m/s 620 mmHg 95%
    21:00 -4°C° 0.1 mm 1 m/s 620 mmHg 95%
    22:00 -4°C° 0.1 mm 1 m/s 620 mmHg 95%
    23:00 -4°C° 0 mm 1 m/s 620 mmHg 95%

    21 Janeiro, Segunda-feira

    Tempo Temperatura Precipitação Vento Pressão Humidade
    00:00 -5°C° 0 mm 0 m/s 620 mmHg 95%
    01:00 -5°C° 0 mm 0 m/s 620 mmHg 95%
    02:00 -6°C° 0 mm 0 m/s 620 mmHg 95%
    03:00 -6°C° 0 mm 0 m/s 620 mmHg 95%
    04:00 -6°C° 0 mm 0 m/s 620 mmHg 95%
    05:00 -6°C° 0 mm 0 m/s 620 mmHg 94%
    06:00 -7°C° 0 mm 0 m/s 620 mmHg 93%
    07:00 -7°C° 0 mm 0 m/s 620 mmHg 93%
    08:00 -6°C° 0 mm 0 m/s 621 mmHg 91%
    09:00 -4°C° 0 mm 0 m/s 621 mmHg 88%
    10:00 -3°C° 0 mm 0 m/s 622 mmHg 86%
    11:00 -3°C° 0 mm 0 m/s 622 mmHg 85%
    12:00 -2°C° 0 mm 0 m/s 622 mmHg 83%
    13:00 -2°C° 0 mm 0 m/s 622 mmHg 81%
    14:00 -2°C° 0 mm 0 m/s 621 mmHg 83%
    15:00 -3°C° 0 mm 0 m/s 621 mmHg 85%
    16:00 -4°C° 0 mm 0 m/s 621 mmHg 87%
    17:00 -4°C° 0.1 mm 0 m/s 621 mmHg 87%
    18:00 -4°C° 0.1 mm 0 m/s 621 mmHg 88%
    19:00 -4°C° 0.1 mm 1 m/s 621 mmHg 88%
    20:00 -4°C° 0.2 mm 1 m/s 621 mmHg 89%
    21:00 -4°C° 0.2 mm 1 m/s 621 mmHg 89%
    22:00 -4°C° 0.2 mm 1 m/s 621 mmHg 90%
    23:00 -4°C° 0.3 mm 1 m/s 620 mmHg 90%

    22 Janeiro, Terça-feira

    Tempo Temperatura Precipitação Vento Pressão Humidade
    00:00 -4°C° 0.3 mm 1 m/s 620 mmHg 91%
    01:00 -4°C° 0.3 mm 1 m/s 619 mmHg 91%
    02:00 -4°C° 0.3 mm 1 m/s 619 mmHg 91%
    03:00 -4°C° 0.3 mm 1 m/s 618 mmHg 91%
    04:00 -6°C° 0.3 mm 2 m/s 618 mmHg 92%
    05:00 -6°C° 0.6 mm 2 m/s 617 mmHg 92%
    06:00 -6°C° 0.6 mm 2 m/s 617 mmHg 92%
    07:00 -6°C° 0.6 mm 2 m/s 617 mmHg 92%
    08:00 -5°C° 0 mm 2 m/s 617 mmHg 92%
    09:00 -5°C° 0 mm 3 m/s 617 mmHg 93%
    10:00 -4°C° 0 mm 3 m/s 617 mmHg 93%
    11:00 -4°C° 1 mm 3 m/s 616 mmHg 94%
    12:00 -3°C° 1 mm 2 m/s 616 mmHg 96%
    13:00 -3°C° 1 mm 2 m/s 615 mmHg 97%
    14:00 -3°C° 0.2 mm 2 m/s 615 mmHg 97%
    15:00 -3°C° 0.2 mm 2 m/s 615 mmHg 97%
    16:00 -3°C° 0.2 mm 2 m/s 615 mmHg 97%
    17:00 -4°C° 0 mm 2 m/s 614 mmHg 97%
    18:00 -4°C° 0 mm 2 m/s 614 mmHg 97%
    19:00 -4°C° 0 mm 2 m/s 614 mmHg 98%
    20:00 -4°C° 0 mm 2 m/s 614 mmHg 98%
    21:00 -4°C° 0 mm 2 m/s 614 mmHg 97%
    22:00 -5°C° 0 mm 2 m/s 614 mmHg 97%
    23:00 -5°C° 0 mm 2 m/s 614 mmHg 97%
    Mostrar mais